This demonstration page uses our WeatherBlox Daily Observations layout. Learn more.

Left ArrowRight Arrow

39.12711, -84.51439

Hourly Observations for June 8, 2017

Temp ( °F °C ) Dew Point ( °F °C ) Humidity (%) Winds ( mph kmh ) Pressure ( in mb ) Visibility ( mi km ) Precip ( " mm )
12:53 am 00:53 Cloudy 56 13.3 52 11.1 87 87 Calm 30.03 1017 10 16 0.00 0.00
1:53 am 01:53 Clear 53 11.7 52 11.1 96 96 Calm 30.03 1017 10 16 0.00 0.00
2:53 am 02:53 Clear 52 11.1 51 10.6 97 97 Calm 30.01 1016 10 16 0.00 0.00
3:53 am 03:53 Clear with Mist and Fog 50 10 50 10 100 100 Calm 30.01 1016 5 8 0.00 0.00
4:53 am 04:53 Clear 50 10 50 10 100 100 Calm 30.01 1016 10 16 0.00 0.00
4:59 am 04:59 Clear with Mist and Fog 49 9.4 48 8.9 97 97 Calm 30.00 1016 2 3 0.00 0.00
5:14 am 05:14 Clear with Mist and Fog 50 10 50 10 100 100 Calm 30.03 1017 4 6 0.00 0.00
5:28 am 05:28 Clear with Mist and Fog 49 9.4 49 9.4 100 100 Calm 30.03 1017 2 3 0.00 0.00
5:37 am 05:37 Clear with Mist and Fog 50 10 50 10 100 100 Calm 30.03 1017 3 5 0.00 0.00
5:53 am 05:53 Clear 50 10 50 10 100 100 Calm 30.02 1017 10 16 0.00 0.00
6:22 am 06:22 Sunny with Mist and Fog 48 8.9 48 8.9 100 100 Calm 30.03 1017 2 2 0.00 0.00
6:30 am 06:30 Sunny with Fog 50 10 49 9.4 96 96 Calm 30.03 1017 1 1 0.00 0.00
6:35 am 06:35 Sunny with Mist and Fog 50 10 49 9.4 96 96 Calm 30.03 1017 3 4 0.00 0.00
6:42 am 06:42 Sunny 50 10 50 10 100 100 Calm 30.03 1017 9 14 0.00 0.00
6:53 am 06:53 Sunny 50 10 50 10 100 100 Calm 30.03 1017 10 16 0.00 0.00
7:53 am 07:53 Sunny 56 13.3 54 12.2 93 93 E 3 6 30.03 1017 10 16 0.00 0.00
8:53 am 08:53 Sunny 61 16.1 54 12.2 78 78 ENE 5 7 30.03 1017 10 16 0.00 0.00
9:53 am 09:53 Sunny 64 17.8 54 12.2 70 70 NE 5 7 30.02 1017 10 16 0.00 0.00
10:53 am 10:53 Sunny 67 19.4 54 12.2 63 63 NE 12 19 30.00 1016 10 16 0.00 0.00
11:53 am 11:53 Partly Cloudy 69 20.6 53 11.7 57 57 ENE 8 13 29.99 1016 10 16 0.00 0.00
12:53 pm 12:53 Mostly Cloudy 70 21.1 54 12.2 57 57 E 5 7 29.98 1015 10 16 0.00 0.00
1:14 pm 13:14 Partly Cloudy 72 22.2 54 12.2 53 53 ENE 3 6 29.94 1014 10 16 0.00 0.00
1:53 pm 13:53 Mostly Cloudy 72 22.2 54 12.2 53 53 VRB 7 11 29.96 1015 10 16 0.00 0.00
2:53 pm 14:53 Mostly Cloudy 73 22.8 54 12.2 51 51 N 9 15 29.95 1014 10 16 0.00 0.00
3:53 pm 15:53 Mostly Cloudy 73 22.8 52 11.1 48 48 N 8 13 29.92 1013 10 16 0.00 0.00
4:53 pm 16:53 Mostly Sunny 72 22.2 53 11.7 52 52 Calm 29.91 1013 10 16 0.00 0.00
5:53 pm 17:53 Mostly Sunny 73 22.8 55 12.8 53 53 Calm 29.89 1012 10 16 0.00 0.00
6:53 pm 18:53 Cloudy 75 23.9 53 11.7 46 46 Calm 29.88 1012 10 16 0.00 0.00
7:53 pm 19:53 Mostly Sunny 74 23.3 53 11.7 48 48 W 6 9 29.88 1012 10 16 0.00 0.00
8:53 pm 20:53 Sunny 70 21.1 51 10.6 51 51 NW 7 11 29.88 1012 10 16 0.00 0.00
9:53 pm 21:53 Clear 60 15.6 56 13.3 86 86 Calm 29.90 1012 10 16 0.00 0.00
10:53 pm 22:53 Clear 59 15 54 12.2 83 83 Calm 29.91 1013 10 16 0.00 0.00
11:53 pm 23:53 Clear 58 14.4 54 12.2 87 87 Calm 29.91 1013 10 16 0.00 0.00

Powered by AerisWeather